Helicity
-28 -58 -40 -222 -87 71 86 82 142 73 144 113 -92 -177 -117 -89 -46 -18 26 40 25 33 35 59 70 64 65 103 178 221 241 257 335 294 279 503 394 386 397 330 312 311 324 298
160 111 39 -20 -35 16 -10 114 257 166 93 123 -58 -68 -48 -27 7 53 107 125 141 151 99 52 49 94 140 150 191 235 210 268 367 343 501 467 418 455 449 409 375 315 300 309
123 111 117 143 77 206 220 178 127 180 119 25 -6 -88 -70 -9 76 135 159 174 173 155 107 94 83 80 88 122 157 190 233 235 241 343 382 470 513 559 539 503 392 340 319 255
-87 -29 186 140 126 49 165 132 162 150 130 64 76 103 121 137 143 153 151 133 123 110 113 94 64 36 22 70 131 160 190 288 354 339 355 397 469 466 579 550 514 397 423 322
-46 -81 22 6 31 56 70 35 60 31 119 163 195 170 160 149 135 113 112 104 99 85 79 81 72 67 54 58 58 85 150 256 316 398 432 482 547 610 647 674 662 540 388 382
83 44 -18 99 215 121 74 92 126 59 123 136 113 98 108 60 76 61 53 42 47 67 78 77 78 76 72 80 95 116 109 194 282 333 402 459 562 687 705 717 771 696 554 371
45 61 24 94 197 167 86 129 165 120 96 98 105 107 89 64 55 44 51 64 42 56 84 98 117 119 120 107 95 125 191 272 277 298 361 426 547 667 812 848 855 635 441 338
22 3 30 152 199 237 256 218 156 116 105 105 103 79 74 84 106 94 80 52 47 68 86 84 89 97 104 95 107 101 152 240 278 331 374 438 530 642 827 891 663 466 385 286
80 104 59 132 338 369 359 281 123 108 96 66 67 87 104 101 49 25 27 28 24 51 74 88 65 41 36 62 129 180 232 256 299 330 381 451 541 636 650 517 469 467 372 259
23 -38 39 37 75 142 160 159 64 45 38 58 86 86 92 62 31 31 32 30 22 18 76 87 36 21 18 6 79 185 234 270 325 385 371 398 421 429 387 416 448 399 260 219
56 12 -56 -11 7 21 36 77 42 44 66 71 66 51 64 46 46 35 51 -22 -26 -29 -45 -26 -16 -17 -7 24 72 125 172 179 234 282 312 297 248 276 297 307 334 279 203 140
-20 -3 10 22 12 13 47 18 61 37 64 68 52 42 54 50 33 21 22 1 -8 -11 -0 14 9 13 20 40 69 88 105 154 164 210 234 237 275 260 187 202 176 155 136 112
-7 4 -6 20 20 24 28 36 75 151 105 85 61 53 44 44 25 16 31 20 19 -1 -1 33 51 57 56 51 70 76 73 78 108 135 145 138 132 144 118 101 80 35 53 110
43 38 58 40 45 75 51 47 35 118 120 88 48 39 28 55 57 52 41 22 19 17 19 17 60 80 74 68 62 62 67 92 73 52 84 120 113 87 109 130 112 95 105 130
46 61 75 72 39 22 27 48 25 67 155 56 64 58 52 63 68 49 39 34 29 43 43 58 66 85 101 100 101 83 55 55 71 78 85 103 112 120 137 146 146 160 160 134
69 79 101 43 33 38 54 28 17 44 23 41 62 67 68 69 55 39 29 25 15 18 16 24 61 71 46 85 104 125 115 89 92 116 133 132 144 165 176 174 196 213 194 171
47 80 99 55 17 72 80 23 35 47 64 66 68 52 57 57 47 46 46 38 24 8 4 20 41 68 70 99 114 114 117 140 123 85 149 148 139 147 180 194 193 197 177 180
12 18 44 86 98 94 73 64 70 90 116 74 71 62 62 63 44 39 30 26 25 27 47 65 55 73 97 84 78 100 161 173 165 168 179 182 184 160 182 171 173 184 178 187
8 23 35 39 68 51 52 87 161 158 105 95 79 68 53 37 27 21 18 15 22 20 54 76 80 79 93 109 88 102 112 157 173 188 181 195 193 207 193 168 179 192 208 223
62 60 36 23 44 35 100 173 160 97 83 81 69 58 41 34 31 24 21 14 13 37 64 80 87 98 111 100 92 100 113 148 162 194 204 218 226 205 213 200 195 207 215 211
40 46 35 54 61 80 138 162 110 86 59 54 48 50 42 39 38 29 36 27 36 41 61 66 90 94 95 86 64 67 111 137 159 188 189 192 208 230 227 229 232 210 234 223
-18 -10 11 45 76 103 139 147 86 75 79 48 26 41 34 32 32 38 17 34 42 53 68 72 76 73 60 46 42 46 75 98 111 147 170 171 182 222 231 238 235 235 214 229
-19 -26 -40 2 104 181 124 93 92 67 37 10 17 30 26 27 33 44 51 65 61 71 71 61 60 61 57 38 36 55 58 57 61 131 110 160 133 167 188 239 211 213 227 207
-4 9 -2 -0 10 8 -7 -7 9 12 21 25 24 29 40 50 46 44 56 65 71 69 54 51 59 50 29 33 38 44 42 43 36 75 132 123 132 151 159 181 179 168 181 176
18 27 29 34 38 36 35 32 26 25 31 34 22 20 27 35 46 59 73 65 61 58 50 44 47 36 42 42 35 37 47 47 50 79 91 78 79 96 98 115 131 134 152 181
21 25 29 18 26 32 32 31 27 32 30 40 49 45 54 53 49 55 56 58 47 47 40 37 35 40 52 55 53 52 56 51 52 63 90 81 72 84 112 135 138 145 165 184
15 10 32 46 43 40 30 29 30 26 44 65 55 32 49 48 51 53 45 34 35 37 31 33 33 42 43 49 58 62 65 73 82 84 92 96 102 112 139 154 163 184 194 221
Wind_Speed
92 103 100 93 80 74 70 71 64 51 56 51 48 44 32 48 59 57 53 51 52 48 48 46 45 43 42 35 33 33 29 29 31 41 40 41 24 33 31 32 31 28 29 27
113 106 104 105 96 87 86 81 78 66 80 51 42 35 47 50 52 50 47 45 47 47 51 52 47 43 43 35 30 24 28 33 33 36 36 37 34 31 36 37 38 33 33 30
111 84 89 96 95 86 77 73 68 70 77 46 45 50 58 56 46 41 42 43 47 50 53 54 50 47 45 34 31 33 35 35 32 36 38 37 37 38 41 41 39 40 35 29
101 92 94 70 59 67 75 75 68 69 61 49 45 40 42 40 39 40 40 45 49 53 55 56 53 45 32 27 29 32 37 39 40 37 39 44 45 44 43 43 42 40 34 31
84 92 90 81 60 55 60 74 62 63 52 40 31 37 43 32 35 36 42 49 53 49 47 46 43 42 40 36 34 36 37 39 41 44 45 48 50 49 47 44 46 40 36 32
68 68 76 62 52 48 42 65 44 36 40 37 31 45 43 28 28 35 40 44 46 45 41 39 42 43 40 36 33 35 37 38 43 43 44 50 49 49 49 44 46 40 39 36
76 68 62 53 55 46 50 50 40 30 25 21 34 33 21 22 29 35 41 46 45 41 43 43 43 42 43 41 41 41 40 36 37 35 41 44 46 50 52 45 43 41 42 35
64 69 65 52 41 39 40 34 27 22 19 19 18 19 22 24 31 35 41 42 42 38 37 40 41 44 48 46 48 42 37 38 38 35 31 30 33 37 39 44 41 43 41 34
40 33 39 37 30 31 32 36 32 31 27 20 18 18 20 28 29 33 37 38 31 34 40 45 48 48 47 48 37 34 30 32 31 30 29 27 28 29 39 45 39 38 42 34
44 39 41 31 32 31 29 34 35 27 21 17 15 18 23 26 34 38 34 31 31 35 40 45 48 49 46 43 39 27 20 21 24 25 24 24 27 27 35 39 36 35 33 33
58 55 46 39 39 37 36 36 36 33 23 19 18 19 21 24 29 28 30 33 32 36 40 42 45 47 42 39 38 37 28 13 12 16 16 18 25 25 30 40 29 34 33 33
63 56 55 53 48 48 41 32 31 23 18 19 24 20 19 18 23 25 28 30 33 35 37 38 38 40 40 38 37 35 37 36 21 6 6 11 19 21 30 21 25 27 26 27
64 57 60 61 56 53 47 40 40 43 40 40 35 24 15 16 19 23 26 31 34 35 34 33 31 31 31 33 32 31 30 30 32 31 23 9 11 16 18 20 22 20 22 25
72 72 71 62 60 53 49 43 41 40 37 39 29 14 11 14 19 24 28 33 35 36 37 34 30 28 27 28 27 26 25 23 21 20 22 26 24 13 17 21 24 29 27 22
74 71 78 77 69 66 55 51 41 31 30 26 17 13 15 18 21 26 31 36 35 36 40 40 34 27 22 22 23 21 20 17 15 12 8 1 7 10 14 16 19 21 22 26
68 65 68 70 67 61 51 43 35 23 19 18 15 19 17 22 24 28 32 37 39 42 44 44 43 39 22 19 20 20 20 19 12 9 7 3 6 13 19 22 23 24 24 23
67 61 57 55 58 55 54 44 30 17 13 15 14 19 22 25 29 34 37 40 42 44 44 44 45 42 33 19 16 18 21 22 20 20 16 26 23 19 19 18 21 23 25 24
42 57 51 51 53 53 55 51 23 37 27 17 24 27 30 31 34 38 40 43 46 45 44 42 45 44 41 24 13 15 15 17 22 32 36 30 34 36 32 25 26 25 26 25
43 49 46 45 44 40 36 29 24 17 14 16 17 30 33 35 36 40 42 46 48 48 45 47 48 44 38 34 23 20 17 17 18 27 37 44 41 37 36 37 35 32 29 27
16 21 27 28 27 20 18 17 9 8 13 19 23 30 35 37 39 42 45 46 46 46 47 51 49 44 40 35 28 21 15 15 19 26 31 36 44 50 47 40 34 30 29 30
23 18 19 19 20 18 17 12 13 17 19 22 27 32 36 38 41 44 47 49 48 52 53 55 52 46 43 38 34 23 16 14 15 20 28 39 42 45 49 46 42 39 36 33
10 22 21 18 19 22 23 19 17 22 26 29 34 36 38 42 45 49 50 50 51 56 56 55 52 48 45 43 35 25 18 10 9 11 20 41 49 44 42 47 41 36 34 32
19 15 27 18 21 24 25 25 26 26 29 31 34 38 41 44 47 53 55 54 55 57 57 57 56 52 48 43 36 29 16 5 5 3 9 27 57 42 39 38 40 33 32 29
39 36 32 30 27 25 28 30 30 30 34 36 37 39 41 46 48 46 49 52 53 56 57 56 55 51 46 43 40 33 20 6 7 4 5 16 42 41 22 26 31 34 34 32
47 40 33 32 31 34 34 32 34 37 39 43 45 45 44 43 48 50 51 51 52 53 54 54 53 47 43 44 41 37 30 17 9 8 10 34 39 38 35 26 22 25 23 26
49 42 37 34 32 32 33 32 36 38 41 47 47 46 43 43 45 46 46 47 47 48 48 49 48 45 43 41 39 38 35 29 21 16 17 29 26 31 27 22 25 27 25 24
52 46 32 25 22 23 23 27 31 32 34 30 27 29 34 38 40 40 40 39 40 42 43 44 44 44 41 39 38 36 34 32 29 26 24 23 22 22 23 21 21 22 21 18
Wind_Direction
275 272 274 272 275 273 272 273 269 269 271 268 282 291 295 293 293 297 298 303 300 301 299 299 296 297 290 285 278 272 259 253 242 227 233 256 216 217 218 217 211 216 222 224
283 272 267 267 269 266 267 272 271 273 273 280 282 286 290 294 299 299 305 306 306 310 301 297 297 296 293 284 275 268 263 260 248 246 245 247 245 227 222 221 222 220 225 226
276 289 275 268 261 263 270 266 264 269 278 289 275 288 286 289 297 302 302 308 311 311 304 305 306 301 296 288 281 270 266 263 250 248 246 251 244 235 230 225 223 225 226 217
277 278 270 281 289 269 264 270 269 273 275 280 287 298 293 301 300 300 309 312 314 311 310 310 310 311 309 299 284 276 267 261 256 246 247 254 249 238 233 227 227 221 221 210
274 271 272 275 291 282 273 273 268 271 276 282 293 293 290 303 310 314 317 317 316 319 318 319 318 315 309 300 291 283 275 264 258 253 251 249 247 243 237 227 229 228 224 214
268 274 272 280 288 288 283 277 290 277 277 280 287 276 288 303 324 329 333 332 330 329 330 327 322 317 312 304 293 284 278 271 266 259 252 249 244 239 241 233 231 227 226 227
258 270 280 283 287 285 272 282 301 299 287 283 283 299 317 330 328 332 331 333 338 337 332 330 326 320 315 311 304 295 288 279 272 267 257 252 248 248 242 240 234 230 232 231
262 264 270 300 288 274 289 301 305 310 309 305 318 323 326 332 330 337 333 341 341 353 350 339 336 326 316 312 308 304 294 283 274 266 258 249 242 242 235 231 233 235 233 229
301 297 313 320 298 306 301 292 301 298 302 310 314 322 329 333 351 351 347 346 355 358 349 342 341 335 333 327 328 313 300 288 276 266 255 237 225 221 230 229 230 230 230 219
285 296 310 313 306 310 324 301 290 300 314 328 342 321 327 336 339 342 346 355 359 359 350 350 353 349 347 352 0 355 319 292 274 263 250 231 226 221 220 227 223 215 203 209
281 284 280 275 279 296 305 295 285 281 301 313 330 345 347 339 345 344 356 5 9 3 3 4 7 6 1 11 25 42 42 349 296 272 243 237 242 234 223 234 208 199 197 196
280 291 281 283 297 297 284 296 292 288 307 326 322 334 329 331 352 356 360 343 348 359 12 21 22 15 19 28 34 47 61 74 65 35 260 240 235 231 242 220 207 207 199 197
283 285 276 276 280 283 291 297 288 269 274 273 289 305 324 341 355 351 336 333 347 355 5 30 57 62 62 45 46 45 49 64 79 87 99 119 213 207 188 207 213 202 202 215
278 274 271 275 276 281 291 299 305 290 297 289 289 317 348 337 336 329 327 326 333 340 343 356 28 44 52 55 52 43 31 44 59 74 96 112 123 155 198 196 212 225 232 226
279 275 268 272 277 276 283 285 297 306 286 307 307 305 317 315 331 322 314 317 333 336 339 341 5 24 40 42 41 36 25 28 14 35 50 67 150 184 206 213 216 221 232 239
280 279 269 262 263 268 274 283 285 294 295 297 309 295 314 310 314 307 313 323 324 327 329 333 343 356 13 16 9 2 355 347 353 354 327 261 211 237 241 237 230 227 228 228
255 264 261 261 261 262 260 270 276 283 298 289 299 299 303 306 301 298 310 321 322 326 330 344 344 352 356 353 351 346 333 320 311 308 295 275 265 249 246 228 223 225 227 224
184 216 243 255 255 262 259 255 274 256 271 279 275 280 287 295 298 304 312 317 318 329 334 347 346 348 350 352 339 332 332 322 307 293 282 279 266 263 256 247 233 227 233 225
199 212 233 247 262 270 266 257 256 264 274 288 300 283 290 298 305 310 316 316 322 323 334 342 343 347 349 344 334 315 312 308 303 296 286 272 268 260 256 252 248 242 235 225
319 276 272 277 273 271 248 250 269 279 291 301 302 295 294 303 309 312 314 319 327 333 338 339 342 345 345 339 331 319 301 295 291 295 283 277 269 260 256 254 249 240 235 234
6 335 317 288 262 268 270 294 298 308 321 319 315 305 302 308 312 314 318 319 326 326 333 335 341 345 346 340 329 322 308 290 282 287 278 273 267 265 260 255 251 247 244 242
276 324 311 308 283 267 280 299 317 325 327 319 308 314 311 310 314 318 321 323 325 327 334 335 340 343 344 339 334 333 323 286 260 278 280 275 264 264 267 257 249 247 245 244
257 270 0 322 303 292 299 308 312 330 335 329 319 317 316 319 319 317 317 325 326 328 330 331 336 340 340 335 337 338 338 308 207 238 191 276 256 269 274 265 248 244 244 233
309 318 311 310 326 308 285 290 305 319 321 323 323 323 323 322 320 326 329 329 331 330 330 335 340 340 341 337 337 343 357 28 133 82 13 299 271 273 292 273 251 250 250 249
314 321 330 328 319 306 309 314 316 319 322 322 320 319 319 320 318 320 324 326 328 330 334 340 342 345 345 337 338 341 350 18 54 73 2 285 278 276 276 281 272 264 260 258
317 313 315 318 319 319 319 323 323 327 330 327 325 321 318 318 319 321 324 327 330 334 341 345 348 351 348 345 343 339 338 346 1 8 352 303 302 290 290 292 283 278 279 277
314 309 319 329 337 337 338 336 337 346 353 7 19 7 340 327 325 325 327 331 336 338 343 347 354 355 360 357 356 351 348 345 343 342 341 335 324 313 306 304 300 298 298 294